Location: São Paulo
(23.5507°S, 46.6334°W)
Time: 10:12:37
(UTC-03:00)

Explorer 7 - Pass Details

Date: 18 February 2026
Orbit: 430 x 541 km, 50.2° (Epoch: 11 March)

Event Time Altitude Azimuth Distance (km) Brightness Sun altitude
Rises 11:27:23 0° 246° (WSW) 2,461 10.0 72.5°
Reaches altitude 10° 11:30:20 10° 272° (W) 1,561 9.1 73.0°
Maximum altitude 11:32:14 14° 305° (NW) 1,320 8.9 73.4°
Drops below altitude 10° 11:34:08 10° 339° (NNW) 1,532 9.3 73.7°
Sets 11:36:58 0° 5° (N) 2,381 10.2 74.1°
